sat.trackr.live / text

‹ back to catalog

IRIDIUM 126

NORAD 42809 · 2017-039G

PAYLOAD ACTIVE UNKNOWN

§ Identity

Operator
Country
US
Launch date
2017-06-25
Launch site
AFWTR
Launch vehicle
Mass (kg)
RCS (m²)

Purposes: comms

External: N2YO · Heavens-Above · Gunter

§ Orbital elements

Epoch: 2026-05-25T03:00:02.871072Z

Period
100.40 min
Inclination
86.3986°
Eccentricity
0.0002307
Mean motion
14.34217093 rev/d
Perigee alt
776.0 km
Apogee alt
779.3 km
Semi-major
7,155.8 km
B*
1.2159e-5
RAAN
3.2858°
Arg perigee
86.5725°
Mean anomaly
273.5735°
Rev number
46,664

§ Raw data

IRIDIUM 1261 42809U 17039G   26145.12503323  .00000054  00000+0  12159-4 0  99902 42809  86.3986   3.2858 0002307  86.5725 273.5735 14.34217093466648

JSON: /api/v1/satellites/42809 · /tle

For live sub-satellite position, see the globe view (requires WebGL).

§ Visibility from observer

Set your observer location to see the next 7 days of passes ≥ 10°. The values pass through the URL so the page stays shareable.

No JS? Fill the form by hand. The geolocation button needs JavaScript.